STARLINK-1168, 45072

Orbit data source: Space-Track

STARLINK-1168, 45072 is a payload satellite owned by SpaceX/Seattle (US) in LEO that was launched on Wed, 29 Jan 2020 UTC via an FALCON 9 launch vehicle from the Air Force Eastern Test Range (AFETR). Payloads include a variety of satellites, spacecraft, and rockets equipped with specific instruments for various scientific and technological missions. These include communications satellites like Starlink; space stations such as the ISS; scientific satellites like the Hubble; Earth observation satellites from companies like Planet Labs, Umbra, and HawkEye 360; GPS; miniature CubeSats for education and research; and military/defense satellites.

Loading next visibility...
STARLINK-1168 details
Identifier
45072, 2020-006AE
Orbit
LEO
Last TLE update22 hours ago
Origin
Flag of USSpaceX/Seattle (US)
ManufacturerSpaceX/Seattle
MissionOperational Commercial Communications
Bus & MotorSTARLINK, Unknown motor
Mass260 kg wet, ~248 kg dry
Launch date (UTC)
2020-01-29 (5 years ago)
Launch vehicle
FALCON 9
Launch site
Air Force Eastern Test Range (AFETR)
Object type
Payload
Rocket body
Debris
Shape & HBRBox + 1 Pan, 8.86 m
Radar Cross Section13.562 m², Large (>1 m²)

Expand to show TLE details & history

TLE from 22 hours ago
0 STARLINK-1168
1 45072U 20006AE  24360.51054522  .00021409  00000-0  14524-2 0  9999
2 45072  53.0561  78.1698 0001291  88.5467 271.5670 15.06384426270893
Epoch: 2024-12-25T12:15Z
Definitive object data (Epoch: 2024-12-25T12:15:11.107Z)
Latitude0.00001°
Longitude159.87027°
Altitude548.114 km
Speed7.589 km/s
True Right ascension05h 12m 40s
True Declination0° 00' 00"
Sunlit
Object was in full shadow at TLE epoch
Visualization TLE readout
Latitude-16.05594°
Longitude-11.73799°
Altitude551.747 km
Speed7.586 km/s
Apparent Right ascension19h 12m 03s
Apparent Declination-29° 45' 53"
Sunlit
Object is in daylight
Visualization observer readout
Local Sidereal Time09:11:19
Azimuth76.643° E
Elevation-63.661°
Doppler factor1
Orbital elements
Apogee altitude548.424 km
Perigee altitude546.636 km
Semi-major axis6,925.667 km
Eccentricity0.0001291
Inclination53.0561°
RAAN78.1698°
Arg. of periapsis88.5467°
True anomaly271.55221°
Mean anomaly271.567°
Eccentric anomaly271.55961°
Mean motion3.76574 °/min
BSTAR0.0014524
Orbital period95.6 mins
Loading maneuver chart data...
Loading historical data...
Loading historical data...
Loading historical data...
Loading historical data...
Loading historical data...
Loading historical data...
Loading historical data...

STARLINK-1168 Visibility forecast

Observer location: undefined°, undefined

Span
Click to sort rows by Start time (UTC) header in descending order
Start Az.
Max El. time (UTC)
Max El. Az.
Max El.
End time (UTC)
End Az.
6 mins2024-12-26 14:13:14.670Z328.899° NNW2024-12-26 14:16:14.670Z55.453° ENE33.842°2024-12-26 14:19:14.670Z104.932° ESE
5 mins2024-12-26 15:53:14.670Z270.15° WNW2024-12-26 15:55:14.670Z226.086° WSW24.016°2024-12-26 15:58:14.670Z174.699° S
6 mins2024-12-27 07:25:14.670Z209.242° SW2024-12-27 07:28:14.670Z115.964° SE39.428°2024-12-27 07:31:14.670Z59.776° ENE
5 mins2024-12-27 09:05:14.670Z284.793° WNW2024-12-27 09:07:14.670Z322.037° NNW23.823°2024-12-27 09:10:14.670Z23.78° NE
|